Adams, Massachusetts
Current Conditions -  °F | °C
As of 4:52 AM on Thursday 29 Jan 2015 (Local Time) from KAQW Reporting Station
Clear Clear  
Wind Chill: -9°   Ceiling: Unl
Heat Index: -9°   Visibility: 10mi
Dew Point: -15°   Wind: 0mph
Humidity: 75%   Direction: NA
Pressure: 30.31"   Gusts: NA
Location:  42.62°N, 73.12°W
Report Text: KAQW 290952Z AUTO 00000KT 10SM CLR M23/M26 A3031 RMK AO2 SLP283 T12281261
Loading
Personal Weather Stations






























Interactive Weather Map New forecast layout! Learn more

10-Day Weather Forecast

Advertisements
Track Severe Weather on mobile